Miscellaneous Local Product
Issued by NWS Hastings, NE

Home | Current Version | Previous Version | Text Only | Print | Product List | Glossary Off
Versions: 1 2 3 4 5 6 7 8 9 10 11 12 13 14 15 16 17 18 19 20 21 22 23 24 25 26 27 28 29 30 31 32 33 34 35 36 37 38 39 40 41 42 43 44 45 46 47 48 49 50

860
AXUS43 KGID 160102
MISGRI

GID CWA HOURLY WEATHER ROUNDUP
NATIONAL WEATHER SERVICE HASTINGS NE
800 PM CDT SUN OCT 15 2017

NOTE: "FAIR" INDICATES FEW OR NO CLOUDS BELOW 12,000 FEET WITH NO
SIGNIFICANT WEATHER AND/OR OBSTRUCTIONS TO VISIBILITY.

...SOUTH CENTRAL NEBRASKA...

CITY           SKY/WX    TMP DP  RH WIND       PRES   REMARKS
GRAND ISLAND   CLEAR     49  39  68 SW3       30.33R
HASTINGS       CLEAR     51  34  52 CALM      30.34R
KEARNEY        CLEAR     54  32  43 SW3       30.34R
ORD            CLEAR     44  32  62 NW5       30.32R
YORK           CLEAR     50  34  53 CALM      30.32S
AURORA         CLEAR     51  33  49 CALM      30.32S
LEXINGTON      CLEAR     50  34  53 W3        30.35R
HOLDREGE       CLEAR     52  32  46 CALM      30.34S
HEBRON         CLEAR     52  37  54 SW3       30.34R

...NEBRASKA PANHANDLE...

CITY           SKY/WX    TMP DP  RH WIND       PRES   REMARKS
CHADRON        CLEAR     48  26  42 CALM      30.31S
ALLIANCE       CLEAR     46  26  45 SE3       30.33S
SCOTTSBLUFF    CLEAR     50  26  39 S6        30.34R
SIDNEY         CLEAR     41  26  55 S6        30.37S

...WESTERN AND NORTH CENTRAL NEBRASKA...

CITY           SKY/WX    TMP DP  RH WIND       PRES   REMARKS
VALENTINE      CLEAR     45  30  55 W6        30.32R
AINSWORTH      CLEAR     47  32  57 CALM      30.32R
ONEILL         CLEAR     49  33  52 W5        30.32R
BROKEN BOW     CLEAR     45  33  63 N5        30.33R
IMPERIAL       CLEAR     51  27  39 CALM      30.36R
NORTH PLATTE   CLEAR     49  34  56 CALM      30.35R
MCCOOK         CLEAR     56  28  34 CALM      30.36R

...EASTERN NEBRASKA...

CITY           SKY/WX    TMP DP  RH WIND       PRES   REMARKS
NORFOLK        CLEAR     50  33  52 W6        30.30R
SO SIOUX CITY  CLEAR     47  35  63 W6        30.27R
TEKAMAH        CLEAR     46  36  68 W7        30.29R
COLUMBUS       CLEAR     42  36  79 CALM      30.32R
ALBION         CLEAR     49  35  57 N3        30.32R
OMAHA EPPLEY   CLEAR     51  38  60 SE3       30.30S
OFFUTT AFB     CLEAR     44  39  82 CALM      30.30S
MILLARD        CLEAR     49  42  76 CALM      30.30S
LINCOLN        CLEAR     52  36  54 CALM      30.33R
NEBRASKA CITY  CLEAR     49  35  57 SW6       30.32S
BEATRICE       CLEAR     49  39  69 S7        30.33R
FALLS CITY     CLEAR     49  36  61 SW5       30.34R

...NORTHERN KANSAS...

CITY           SKY/WX    TMP DP  RH WIND       PRES   REMARKS
GOODLAND       CLEAR     48  31  51 SW3       30.38R
HILL CITY      CLEAR     49  34  56 N3        30.37R
NORTON         CLEAR     48  25  40 CALM      30.36R
PHILLIPSBURG   CLEAR     52  36  54 CALM      30.36S
SMITH CENTER   CLEAR     50  32  50 S5        30.36R
HAYS           CLEAR     54  35  48 CALM      30.38R
RUSSELL        CLEAR     51  36  56 CALM      30.36S
CONCORDIA      CLEAR     50  36  58 SW8       30.35S
SALINA         CLEAR     56  40  55 SW3       30.38R
TOPEKA         CLEAR     49  42  77 CALM      30.36R



USA.gov is the U.S. government's official web portal to all federal, state and local government web resources and services.